Location: Newark
(9.4667°S, 159.8167°E)
Time: 08:05:40
(UTC+00:00)

Courier 1B Rocket - Pass Details

Date: 29 November 2019
Orbit: 920 x 1202 km, 28.2° (Epoch: 05 December)

Event Time Altitude Azimuth Distance (km) Brightness Sun altitude
Rises 16:28:55 0° 231° (SW) 3,984 - -32.0°
Exits shadow 16:31:59 - 221° (SW) 3,054 7.5 -31.4°
Reaches altitude 10° 16:32:15 10° 219° (SW) 2,978 7.4 -31.3°
Maximum altitude 16:38:21 28° 163° (SSE) 1,876 6.8 -30.0°
Drops below altitude 10° 16:44:05 10° 105° (ESE) 2,794 8.3 -28.8°
Sets 16:47:06 0° 94° (E) 3,698 9.0 -28.2°
